Starlink 5002

operational
NORAD ID: 53922 Int'l Des: 2022-119 Owner: SPXS Country: US Constellation: starlink
LEOCIRCULAR

Starlink 5002について

説明を読み込み中...

リアルタイム位置

3D地球を読み込み中...

次回通過

高度履歴

Altitude vs Time

uPlot chart will show altitude changes over time

軌道要素

1 53922U 22119AN 26063.16015293 .00007742 00000-0 50424-3 0 9998
2 53922 53.2181 338.6949 0001208 93.5477 266.5654 15.08820253190997
Epoch: Mar 4, 2026 • Age: 22 hours

現在のステータス

高度 541.6 km
速度 7.60 km/s
衛星直下点 34.61°N, 7.13°W
打ち上げ日 Sep 24, 2022
運用期間 3.4 years
タイプ internet

技術仕様

分類 Payload
質量 305.00 kg
乾燥質量 290.00 kg
総質量 305.00 kg
長さ 0.20 m
直径 2.80 m
スパン 9.00 m
形状 Box + pan
製造者 SPXS
バスタイプ Starlink
フェーズステータス In Orbit
所有者/国 SPXS/US

大規模コンステレーション

Loading constellations...